TimeCDT,TemperatureF,Dew PointF,Humidity,Sea Level PressureIn,VisibilityMPH,Wind Direction,Wind SpeedMPH,Gust SpeedMPH,PrecipitationIn,Events,Conditions,WindDirDegrees,DateUTC
12:56 AM,10.0,7.2,88,30.11,10.0,Calm,Calm,-,N/A,,Clear,0,2013-03-23 05:56:00
1:56 AM,9.1,7.2,92,30.11,10.0,Calm,Calm,-,N/A,,Clear,0,2013-03-23 06:56:00
2:56 AM,9.1,6.1,87,30.10,10.0,Calm,Calm,-,N/A,,Clear,0,2013-03-23 07:56:00
3:56 AM,8.1,5.0,87,30.10,10.0,Calm,Calm,-,N/A,,Clear,0,2013-03-23 08:56:00
4:56 AM,8.1,4.1,84,30.10,10.0,Calm,Calm,-,N/A,,Clear,0,2013-03-23 09:56:00
5:56 AM,9.1,5.0,83,30.12,10.0,Calm,Calm,-,N/A,,Clear,0,2013-03-23 10:56:00
6:56 AM,9.1,5.0,83,30.14,10.0,Calm,Calm,-,N/A,,Mostly Cloudy,0,2013-03-23 11:56:00
7:56 AM,12.0,8.1,84,30.17,10.0,Calm,Calm,-,N/A,,Overcast,0,2013-03-23 12:56:00
8:56 AM,18.1,12.0,77,30.17,10.0,Calm,Calm,-,N/A,,Overcast,0,2013-03-23 13:56:00
9:56 AM,26.1,15.1,63,30.17,10.0,Calm,Calm,-,N/A,,Overcast,0,2013-03-23 14:56:00
10:56 AM,28.0,15.1,58,30.17,10.0,Calm,Calm,-,N/A,,Overcast,0,2013-03-23 15:56:00
11:56 AM,34.0,15.1,46,30.15,10.0,Calm,Calm,-,N/A,,Scattered Clouds,0,2013-03-23 16:56:00
12:56 PM,34.0,15.1,46,30.14,10.0,Calm,Calm,-,N/A,,Partly Cloudy,0,2013-03-23 17:56:00
1:56 PM,34.9,14.0,42,30.14,10.0,Calm,Calm,-,N/A,,Partly Cloudy,0,2013-03-23 18:56:00
2:56 PM,36.0,14.0,41,30.13,10.0,Calm,Calm,-,N/A,,Scattered Clouds,0,2013-03-23 19:56:00
3:56 PM,36.9,15.1,41,30.11,10.0,Calm,Calm,-,N/A,,Partly Cloudy,0,2013-03-23 20:56:00
4:56 PM,34.0,17.1,50,30.12,10.0,Calm,Calm,-,N/A,,Scattered Clouds,0,2013-03-23 21:56:00
5:56 PM,32.0,18.1,57,30.10,10.0,Calm,Calm,-,N/A,,Clear,0,2013-03-23 22:56:00
6:56 PM,31.1,18.1,59,30.11,10.0,Calm,Calm,-,N/A,,Clear,0,2013-03-23 23:56:00
7:56 PM,28.0,18.1,66,30.12,10.0,Calm,Calm,-,N/A,,Mostly Cloudy,0,2013-03-24 00:56:00
8:56 PM,26.1,19.0,75,30.12,10.0,Calm,Calm,-,N/A,,Clear,0,2013-03-24 01:56:00
9:56 PM,24.1,18.1,78,30.13,10.0,Calm,Calm,-,N/A,,Overcast,0,2013-03-24 02:56:00
10:56 PM,27.1,20.1,75,30.11,10.0,Calm,Calm,-,N/A,,Overcast,0,2013-03-24 03:56:00
11:56 PM,28.0,20.1,72,30.11,10.0,Calm,Calm,-,N/A,,Mostly Cloudy,0,2013-03-24 04:56:00